Regional Weather Roundup
Issued by NWS

Home | Current Version | Previous Version | Graphics & Text | Print | Product List | Glossary On
Versions: 1 2 3 4 5 6 7 8 9 10 11 12 13 14 15 16 17 18 19 20 21 22 23 24 25 26 27
000
ASUS45 KBOI 142110
RWRID

IDAHO REGIONAL WEATHER ROUNDUP
NATIONAL WEATHER SERVICE BOISE ID
200 PM MST THU DEC 14 2017

NOTE: "FAIR" INDICATES FEW OR NO CLOUDS BELOW 12000 FEET
WITH NO SIGNIFICANT WEATHER AND/OR OBSTRUCTIONS TO VISIBILITY

IDZ012-014-142200-
SOUTHWEST IDAHO


CITY           SKY/WX    TMP DP  RH WIND       PRES   REMARKS
BOISE          CLOUDY    26  21  81 S3        30.53F
CALDWELL       CLOUDY    27  23  85 E7        30.56F WCI  19
$$

IDZ016-017-142200-
SOUTHCENTRAL IDAHO


CITY           SKY/WX    TMP DP  RH WIND       PRES   REMARKS
BURLEY         FAIR      31  25  78 E6        30.43F WCI  25
JEROME         CLOUDY    29  24  82 E5        30.45F HAZE    WCI  24
TWIN FALLS     CLOUDY    28  26  92 N8        30.45F FOG     WCI  20
$$

IDZ019>023-142200-
SOUTHEAST IDAHO


CITY           SKY/WX    TMP DP  RH WIND       PRES   REMARKS
IDAHO FALLS    CLOUDY    23  21  92 CALM      30.45F FOG
POCATELLO      CLOUDY    24  21  88 N7        30.46F FOG     WCI  16
REXBURG        CLOUDY    21  19  92 CALM      30.41F FOG
$$

IDZ006-010-011-018-031-032-142200-
CENTRAL IDAHO MOUNTAINS


CITY           SKY/WX    TMP DP  RH WIND       PRES   REMARKS
MCCALL         FAIR      26  24  92 S5        30.38F WCI  20
HAILEY         SUNNY     37  27  65 SE7       30.40F WCI  32
STANLEY          N/A     22  16  78 CALM      30.41F
SALMON         CLOUDY    31  24  75 CALM      30.46F
CHALLIS        CLOUDY    30  23  75 CALM      30.43F
$$

IDZ002-004-006-007-026-142200-
NORTHERN IDAHO


CITY           SKY/WX    TMP DP  RH WIND       PRES   REMARKS
LEWISTON       CLOUDY    34  28  79 CALM      30.49F
LOWELL           N/A     39  32  76 S7        30.47F WCI  34
COEUR D`ALENE  CLOUDY    33  27  78 N5        30.45F WCI  29
MULLAN PASS    FAIR      28  24  85 VRB3      30.29F
$$




USA.gov is the U.S. government's official web portal to all federal, state and local government web resources and services.